Location: Tucson
(32.2220°N, 110.9260°W)
Time: 06:57:20
(UTC-07:00)

Envisat - Visible Passes

Search period start: 24 June 2017 00:00
Search period end: 04 July 2017 00:00
Orbit: 764 x 766 km, 98.2° (Epoch: 23 June)

Date Brightness Start Highest point End Pass type
(mag) Time Alt. Az. Time Alt. Az. Time Alt. Az.
24 Jun 5.0 21:23:37 10° SSW 21:27:39 24° W 21:31:43 10° NW visible
25 Jun 3.5 20:45:52 10° S 20:50:50 59° W 20:55:51 10° NNW visible
26 Jun 3.2 20:09:15 10° SSE 20:14:11 57° ENE 20:19:10 10° N visible
26 Jun 5.6 21:51:25 10° WSW 21:53:28 12° W 21:55:33 10° WNW visible
27 Jun 4.6 21:12:05 10° SSW 21:16:31 31° W 21:21:00 10° NW visible
28 Jun 3.1 20:34:42 10° S 20:39:45 77° WSW 20:44:51 10° NNW visible
29 Jun 3.5 19:58:22 10° SE 20:03:09 43° ENE 20:07:57 10° N visible
29 Jun 5.4 21:39:09 10° SW 21:42:18 16° W 21:45:28 10° NW visible
30 Jun 4.2 21:00:40 10° SSW 21:05:24 40° W 21:10:10 10° NNW visible
01 Jul 3.0 20:23:37 10° SSE 20:28:41 82° ENE 20:33:46 10° N visible
02 Jul 5.1 21:27:19 10° SW 21:31:09 21° W 21:34:59 10° NW visible
03 Jul 3.7 20:49:22 10° S 20:54:18 52° W 20:59:16 10° NNW visible
